"Pseudo-MPEC" for IF033

Created 2020 Jan 15 17:07:12 UT using Find_Orb

Click here for an explanation of pseudo-MPECs

 
 Astrometry: 
     IF033    C2020 01 08$YZC)$8r.8HIlS@ffyUQo3!%Yy^Y3(u,4i:7dLj^80Astrometry872
     IF033    C2020 01 08]1fhO5U*nh1ngIMUQ#q8k`,KxJwBbj-E!MhPbC5V2$SIQ.U.ZmS@872
     IF033    C2020 01 09S$rXo@l@m).wE+2Uq2YK\d37sm^Lhk+`I-/DyedlnLC91Vn)B'.$C42
     IF033    C2020 01 10luo?iSEWyPqH]'l6F0\;\.n6WQX^97*4,#W:I49S`;kA.[gr\UxEC42
     IF033    C2020 01 10#4TF:G]redacted;y[Dm8%[+3AF$._*'W@6Ue9igGj\nM[)K7Pc=C42
     IF033    C2020 01 132n*Soclickbp#!T^Ytt4`gX'4H=\OR@!jpda(3k6(-`_.nDghrV(L51
     IF033    C2020 01 13`hdN6'1?Z+@$U_?8rdNTqh9%\7mJd#-Jkqx[xc2Huj$4/,sD:j2-L51
     IF033    C2020 01 13Jnyqrct%g?P?O)T;+),/=oK#io=3[%7O$.A\[.!2MU;0dVmK12Q4L51
     IF033    C2020 01 13U,B\1ZeiBA0%#rZ5E6PV`LG#QXi(GD]-@sT8awZK]C6rhLxbJNe`403
     IF033    C2020 01 13T^-Ru:Mn2'-MXgx4$AKPdwRb$:g,ZClh[TAWHHK[O2b.yaBW\G-F403
     IF033   KC2020 01 13E_c#T*c4MU./we2EkGO#/7WJ34-[B-Z'p][TFI'UL6?#UQIFxRJ-D88
     IF033    C2020 01 13i'XVo?77Lqsw..Q.X3d^I]aX4d%2p)s_d+pYJ-qQYD(ARY*hered403
     IF033   KC2020 01 13lHo+d(?(-+y6$8T0.34p^e)(m$5'.yMVwa@%Zf?!Vxn0bCvL(U0cD88
     IF033    C2020 01 13ZyjByryUo:uNuQ:nSplGT#IQ*+m_pVso!pnso#B/Rp^*0S]Zy^`T403
     IF033   KC2020 01 14;c+EoR_eb24c()6w`Xa9(yCl,ZL,rf`3PE3ywr9*R#35mdv%5.%2A71
     IF033   KC2020 01 14Uel'qdH1QRVdQ-\IGA!$.kqrgQxV`Wh;B4vnRx%]P6H[C^*DY`HgA71
     IF033   KC2020 01 14Qt:rK8(eIJZE819j/sM`cOA`4+mf-5q'OC-AKrjOSigd]WM0^3s4A71
     IF033   KC2020 01 14/Y5dI!r^LS3o`.t3RI@B6^YG1i_Ebs.uOC:yx2]J?K?Z39mfgb,KA71
     IF033   KC2020 01 14AS\08[LfiG;fa:dMR4mWS'jFt0;rHf9UIn^u4'wOn^DX2PmY-`Q!A71
     IF033   KC2020 01 144bqOZ@otuqwCUMW7Ja+.+=t5dSv?mMt[ik0J1Yx-QO*`bwI\5.TcA71
     IF033   KC2020 01 14.25596 17 57 16.89 +09 43 48.6    ~1EGq 15.2 RqNEOCP970
     IF033   KC2020 01 14.26055 17 57 17.12 +09 44 02.0    ~1EGq 15.4 RqNEOCP970
     IF033   KC2020 01 14.26513 17 57 17.31 +09 44 15.9    ~1EGq 15.5 RqNEOCP970
     IF033   *C2020 01 14Cq?]dF1F6#0:4DluuAZ[xB3$EomSIWPBNIYlokl_nWy\!k2vglWeG40
     IF033   *C2020 01 14hDC3:7@=nJ_vsshBd[(28'H9MZi:YHE599UVaYp]RCLO-aWsS8AlG40
     IF033   *C2020 01 14eV5Y658_Zots.**JcT-pw3E^tVWMnRsZb.9yx,8X!2,cpj3Zxu*uG40
     IF033    C2020 01 14.51124917 57 30.29 +09 56 01.0    ~1EDM 17.0 GVNEOCPH01
     IF033    C2020 01 14.52230217 57 30.87 +09 56 33.0    ~1EDM 17.0 GVNEOCPH01
     IF033    C2020 01 14.52784917 57 31.17 +09 56 48.9    ~1EDM 17.0 GVNEOCPH01
     IF033   |C2020 01 14.)3]_DdSv^g9F[8DA*WB=_3aMG_H+404GmMEXupH4p)o$0LF'C_nH06
     IF033   |C2020 01 14*2oC4WE4Xla#$AxNigELm:PX@P_cj-GVjkGjjY6Q\;L4CpUhv#\MH06
     IF033    C2020 01 14.53660717 57 31.61 +09 57 14.0    ~1EDM 17.0 GVNEOCPH01
     IF033   |C2020 01 14[VWt?G'@X)0I+1muj)x,oB$0y'G#76w9q=q(t_9g4^pno!g7Wl!VH06
     IF033   |C2020 01 14sH66N#Axt8R28pSTIuLP:/-,1dY3TI9\Pp#(koZG[L=4-K8(xVXlH06
     IF033    C2020 01 14.54324917 57 31.95 +09 57 33.2    ~1EDM 16.9 GVNEOCPH01
     IF033    C2020 01 14.54814 17 57 32.19 +09 57 47.5    ~1EGq 15.8 GVNEOCPG96
     IF033    C2020 01 14.55263 17 57 32.43 +09 58 01.1    ~1EGq 15.9 GVNEOCPG96
     IF033    C2020 01 14.55710 17 57 32.63 +09 58 13.2    ~1EGq 15.8 GVNEOCPG96
     IF033    C2020 01 14.55731 17 57 32.71 +09 58 14.6    ~1EE7 14.0 GVNEOCPI52
     IF033    C2020 01 14.55822 17 57 32.70 +09 58 17.1    ~1EE7 14.1 GVNEOCPI52
     IF033    C2020 01 14.55913 17 57 32.66 +09 58 19.6    ~1EE7 14.2 GVNEOCPI52
     IF033    C2020 01 14.56101 17 57 32.85 +09 58 24.7    ~1EGq 15.8 GVNEOCPG96
     IF033   KC2020 01 15@ex+)1r8[fte\Rm'!'O].lK;cwpt/b:t:yXKqp`]DK@forvrGxTPL34
     IF033   KC2020 01 155C`W;J.eD='8kA7IF.salffn9glm'c;h@0l(ujE(6w?:C'3^MQK9L34
     IF033   KC2020 01 15Fd'lWyNt:pn$bvyRAU41,-K)4_hbj9!j#\745e.O[-Cx`Os;c^GpK61
     IF033   KC2020 01 150Q^Ism2V^i8u#N`eWug??%GlAdPB4:MrcFsW2)o!AjXI*C[%dw)%K61
     IF033   KC2020 01 15xObwv@$H^%u;7$0mTK#8o^qY8H=rFlr.LI^GN`+S\D`d7:rc02[kK61
     IF033   KC2020 01 15o)bgOU97[cu(7[gDqgBXQZL#wj3cGH.Qq]Lv=-_ljP(WtyEq1PQ^K61
     IF033   KC2020 01 15.(NuEODSkuJ(Vv%s^d@N;H_iG*`Y5kqCMErOLt8v#nM(A1la9acxK61
     IF033    C2020 01 15+1]kDL];Id:A]i^/v+AD2IeCo'61jiUL-yRDn!/cvF,ZUJ0:kTMnL34
     IF033    C2020 01 15tJ!;OE*k!0RTbQI=:29`Noi^c496)g;!hVP3`uhJ'C22l)LXvfvJL34
     IF033    C2020 01 15[?/ET57iP8W`BDqgJR06es7ZpX0@9PO8^QNu@XgQ?/P?Z=D2M4Q)L34
     IF033   9C2020 01 15.C=$!MD:WtS;%[6F9WQX@[RxPg%d.ra%vbSuWdIdNEpN8NZKn;#oG40
     IF033   9C2020 01 15:-\sqT\DatXnoiYS_GRUuk]UexplanationRqsGe]8Q7tu-6J@*?G40
     IF033   9C2020 01 15/=8=V_of4:Ij0!;]HZ=_roQmD8)nXghB+Z_;?.'S#Qw3R8qUL4nEG40

Station data:
(403) Kani  (N35.413171 E137.055600)  Japan.
(872) Tokushima  (N34.090233 E134.241100)  Japan.
(970) Chelmsford  (N51.744716 E0.495400)  UK.  Observer N. James. 0.28-m f/10
   Schmidt-Cassegrain + CCD.
(A71) Stixendorf  (N48.428775 E15.453300)  Austria.
(C42) Xingming Observatory,  Mt. Nanshan  (N43.471021 E87.177800)  China.
   Observers H. Tan, X. Gao, P. Sun. Measurers Z. Xu, P. Sun, M.-T. Hui.
   0.5-m f/4 reflector + CCD.
(D88) Hiratsuka  (N35.369663 E139.314200)  Japan.
(G40) Slooh.com Canary Islands Observatory  (N28.299720 W16.508260)  Canary
   Islands (Spain).  Observers G. Gašparović, Y. Chen. 0.43-m f/6.8 Corrected
   Dall-Kirkham + CCD.
(G96) Mt. Lemmon Survey  (N32.442754 W110.788720)  US/Arizona.  Observers T.
   A. Pruyne, B. M. Africano, E. J. Christensen, G. A. Farneth, D. C. Fuls,
   A. R. Gibbs, A. D. Grauer, H. Gröller, J. A. Johnson, R. A. Kowalski, S.
   M. Larson, G. J. Leonard, D. Rankin, R. L. Seaman, F. C. Shelly. 1.5-m
   reflector + 10K CCD.
(H01) Magdalena Ridge Observatory, Socorro  (N33.984833 W107.189333)  US/New
   Mexico.  Observers W. H. Ryan, E. V. Ryan. Measurer W. H. Ryan. 2.4-m
   f/8.9 reflector + CCD.
(H06) RAS Observatory, Mayhill  (N32.903325 W105.528700)  US/New
   Mexico.  Observers E. Guido, G. Sostero, V. Gonano, L. Donato.
(I52) Steward Observatory, Mt. Lemmon Station  (N32.442547 W110.788920)
   US/Arizona.  Observers T. A. Pruyne, B. M. Africano, E. J. Christensen, G.
   A. Farneth, D. C. Fuls, A. R. Gibbs, A. D. Grauer, H. Gröller, J. A.
   Johnson, R. A. Kowalski, S. M. Larson, G. J. Leonard, D. Rankin, R. L.
   Seaman, F. C. Shelly. 1.0-m reflector + CCD.
(K61) Rokycany Observatory  (N49.751403 E13.602600)  Czech Republic.
(L34) Galhassin Robotic Telescope, Isnello  (N37.939361 E14.020610)  Italy.
(L51) MARGO, Nauchnij  (N44.729400 E34.016400)  Ukraine.

Orbital elements:  IF033
   Perihelion 2020 Jan 8.318331 +/- 0.147 TT =  7:38:23 (JD 2458856.818331)
Epoch 2020 Jan 15.0 TT = JDT 2458863.5   Earth MOID: 0.3168   Ma: 0.0293
q   0.98187528 +/- 0.00201          (J2000 ecliptic)
H   13.3  G 0.15                    Peri.   67.97545 +/- 0.14
                                    Node   286.23048 +/- 0.06
e   1.0068019 +/- 0.00804           Incl.  120.69916 +/- 0.022
From 55 observations 2020 Jan. 8-15; mean residual 0".98
Residuals in arcseconds: 
200108 872  3.7-  .55-    200114 A71  .38-  .12-    200114 I52  .61+  .66+    
200108 872  2.4+  2.9-    200114 970  .08+  1.8-    200114 I52  .23-  .54+    
200109 C42  .38+  2.5+    200114 970  .01+  1.5-    200114 I52  1.5-  .42+    
200110 C42  .64-  1.4+    200114 970  .64-  .63-    200114 G96  .13-  .11+    
200110 C42  1.9+  1.3+    200114 G40  .98-  .89-    200115 L34  .39+  .01+    
200113 L51  1.2+  .05-    200114 G40  .82-  .03-    200115 L34  .92+  .26-    
200113 L51  .40-  3.2-    200114 G40  .19-  .54-    200115 K61  .21-  .42+    
200113 L51  1.0+  2.4-    200114 H01  .21+  .40-    200115 K61  1.1-  .87+    
200113 403  .27-  .53+    200114 H01  .31+  .17-    200115 K61  .40-  .50+    
200113 403  .55+  .52-    200114 H01  .50+  .22-    200115 K61  .19-  .72+    
200113 D88  .76-  .79+    200114 H06  .29+  .48-    200115 K61  .18+  .16-    
200113 403  .61-  2.8+    200114 H06  .36+  .80-    200115 L34  .53+  .39+    
200113 D88  .77-  1.1+    200114 H01  .32+  .30-    200115 L34  1.0+  .56+    
200113 403  1.3+  2.0+    200114 H06  .11+  .44-    200115 L34  1.0+  .11+    
200114 A71  .66-  .30-    200114 H06  .16+  .75-    200115 G40  .03+  .00     
200114 A71  .68-  .96+    200114 H01  .28+  .21-    200115 G40  .18-  .13-    
200114 A71  .69-  .55+    200114 G96  .09-  .06-    200115 G40  .17+  .23-    
200114 A71  .40-  .32+    200114 G96  .04+  .62+    
200114 A71  .95+  .11-    200114 G96  .41-  .14-    

Ephemerides (geocentric):
Date (UTC) HH   RA              Dec         delta   r     elong  mag " sig PA
---- -- -- --  -------------   -----------  ------ ------ -----  --- ---- ---
2020 01 15 17  17 58 33.734   +10 54 14.67  1.4791 0.9902  41.6 15.8 .401 101
2020 01 15 18  17 58 35.999   +10 56 18.22  1.4783 0.9903  41.7 15.8 .419 100
2020 01 15 19  17 58 38.267   +10 58 21.90  1.4775 0.9904  41.7 15.8 .437 100
2020 01 15 20  17 58 40.538   +11 00 25.73  1.4766 0.9905  41.8 15.8 .456 100
2020 01 15 21  17 58 42.812   +11 02 29.70  1.4758 0.9906  41.8 15.8 .475 100
2020 01 15 22  17 58 45.090   +11 04 33.81  1.4749 0.9907  41.8 15.8 .494 100
2020 01 15 23  17 58 47.371   +11 06 38.07  1.4741 0.9908  41.9 15.8 .513 100
2020 01 16 00  17 58 49.655   +11 08 42.46  1.4732 0.9909  41.9 15.8 .533 100
2020 01 16 01  17 58 51.942   +11 10 47.01  1.4724 0.9910  42.0 15.8 .553 100
2020 01 16 02  17 58 54.232   +11 12 51.69  1.4715 0.9911  42.0 15.8 .573 100
2020 01 16 03  17 58 56.525   +11 14 56.52  1.4707 0.9912  42.1 15.8 .593 100
2020 01 16 04  17 58 58.822   +11 17 01.49  1.4698 0.9913  42.1 15.8 .613 100
2020 01 16 05  17 59 01.121   +11 19 06.61  1.4690 0.9914  42.2 15.8 .634  99
2020 01 16 06  17 59 03.424   +11 21 11.87  1.4681 0.9915  42.2 15.8 .655  99
2020 01 16 07  17 59 05.731   +11 23 17.28  1.4673 0.9916  42.2 15.8 .676  99
2020 01 16 08  17 59 08.040   +11 25 22.83  1.4664 0.9917  42.3 15.8 .698  99
2020 01 16 09  17 59 10.353   +11 27 28.53  1.4656 0.9918  42.3 15.8 .720  99
2020 01 16 10  17 59 12.668   +11 29 34.37  1.4647 0.9919  42.4 15.8 .742  99
